Location: *
(50.2903°S, 172.5375°W)
Time: 18:50:33
(UTC+00:00)

Cosmos 1242 Rocket - Pass Details

Date: 17 November 2019
Orbit: 448 x 489 km, 81.2° (Epoch: 11 December)

Event Time Altitude Azimuth Distance (km) Brightness Sun altitude
Rises 13:21:39 0° 195° (SSW) 2,560 6.9 -15.3°
Reaches altitude 10° 13:23:46 10° 197° (SSW) 1,680 5.9 -15.1°
Maximum altitude 13:27:26 69° 280° (W) 527 2.5 -14.8°
Enters shadow 13:29:31 24° 358° (N) 1,053 3.8 -14.6°
